Time,TemperatureF,DewpointF,PressureIn,WindDirection,WindDirectionDegrees,WindSpeedMPH,WindSpeedGustMPH,Humidity,HourlyPrecipIn,Conditions,Clouds,dailyrainin,SoftwareType,DateUTC
2013-08-24 00:13:00,64.0,58.0,30.22,SE,144,2.0,5.0,81,0.00,,,0.00,,2013-08-24 05:13:00,
2013-08-24 00:23:00,64.0,58.0,30.22,SSE,161,2.0,6.0,81,0.00,,,0.00,,2013-08-24 05:23:00,
2013-08-24 00:43:00,64.0,58.0,30.22,SE,143,1.0,3.0,82,0.00,,,0.00,,2013-08-24 05:43:00,
2013-08-24 00:53:00,63.0,57.0,30.23,SSE,158,0.0,4.0,82,0.00,,,0.00,,2013-08-24 05:53:00,
2013-08-24 01:12:00,62.0,57.0,30.23,SSE,158,1.0,2.0,83,0.00,,,0.00,,2013-08-24 06:12:00,
2013-08-24 01:22:00,62.0,57.0,30.23,SSE,158,1.0,2.0,84,0.00,,,0.00,,2013-08-24 06:22:00,
2013-08-24 01:42:00,62.0,57.0,30.23,SSE,158,0.0,2.0,84,0.00,,,0.00,,2013-08-24 06:42:00,
2013-08-24 01:52:00,62.0,57.0,30.23,SSE,158,0.0,2.0,85,0.00,,,0.00,,2013-08-24 06:52:00,
2013-08-24 02:12:00,61.0,57.0,30.23,SSE,158,0.0,0.0,86,0.00,,,0.00,,2013-08-24 07:12:00,
2013-08-24 02:22:00,61.0,57.0,30.22,SSE,158,0.0,1.0,86,0.00,,,0.00,,2013-08-24 07:22:00,
2013-08-24 02:43:00,60.0,56.0,30.23,SSE,158,0.0,1.0,87,0.00,,,0.00,,2013-08-24 07:43:00,
2013-08-24 02:53:00,60.0,56.0,30.23,SSE,158,0.0,1.0,87,0.00,,,0.00,,2013-08-24 07:53:00,
2013-08-24 03:12:00,60.0,56.0,30.23,SSE,158,0.0,1.0,88,0.00,,,0.00,,2013-08-24 08:12:00,
2013-08-24 03:22:00,59.0,55.0,30.24,SSE,158,0.0,0.0,88,0.00,,,0.00,,2013-08-24 08:22:00,
2013-08-24 03:42:00,59.0,55.0,30.24,SSE,158,0.0,0.0,88,0.00,,,0.00,,2013-08-24 08:42:00,
2013-08-24 03:52:00,58.0,55.0,30.24,SSE,158,0.0,0.0,89,0.00,,,0.00,,2013-08-24 08:52:00,
2013-08-24 04:11:00,57.0,54.0,30.25,SSE,158,0.0,0.0,89,0.00,,,0.00,,2013-08-24 09:11:00,
2013-08-24 04:22:00,57.0,54.0,30.26,SSE,158,0.0,0.0,89,0.00,,,0.00,,2013-08-24 09:22:00,
2013-08-24 04:44:00,57.0,54.0,30.26,SSE,158,0.0,0.0,90,0.00,,,0.00,,2013-08-24 09:44:00,
2013-08-24 04:53:00,56.0,53.0,30.27,SSE,158,0.0,0.0,90,0.00,,,0.00,,2013-08-24 09:53:00,
2013-08-24 05:13:00,56.0,53.0,30.27,SSE,158,0.0,0.0,90,0.00,,,0.00,,2013-08-24 10:13:00,
2013-08-24 05:23:00,56.0,53.0,30.27,SSE,158,0.0,0.0,91,0.00,,,0.00,,2013-08-24 10:23:00,
2013-08-24 05:42:00,57.0,54.0,30.27,SSE,158,0.0,1.0,91,0.00,,,0.00,,2013-08-24 10:42:00,
2013-08-24 05:53:00,56.0,53.0,30.27,SSE,158,0.0,1.0,90,0.00,,,0.00,,2013-08-24 10:53:00,
2013-08-24 06:12:00,57.0,54.0,30.27,SSE,158,0.0,1.0,91,0.00,,,0.00,,2013-08-24 11:12:00,
2013-08-24 06:22:00,57.0,54.0,30.28,SSE,158,0.0,1.0,90,0.00,,,0.00,,2013-08-24 11:22:00,
2013-08-24 06:42:00,57.0,54.0,30.28,SSE,158,0.0,2.0,90,0.00,,,0.00,,2013-08-24 11:42:00,
2013-08-24 06:52:00,57.0,54.0,30.28,SSE,158,0.0,1.0,90,0.00,,,0.00,,2013-08-24 11:52:00,
2013-08-24 07:12:00,58.0,55.0,30.29,SSE,158,0.0,2.0,89,0.00,,,0.00,,2013-08-24 12:12:00,
2013-08-24 07:21:00,58.0,55.0,30.29,SSE,158,2.0,3.0,89,0.00,,,0.00,,2013-08-24 12:21:00,
2013-08-24 07:42:00,59.0,55.0,30.29,SSE,158,0.0,3.0,88,0.00,,,0.00,,2013-08-24 12:42:00,
2013-08-24 07:52:00,60.0,56.0,30.29,SSE,158,1.0,2.0,88,0.00,,,0.00,,2013-08-24 12:52:00,
2013-08-24 08:11:00,61.0,57.0,30.29,SSE,158,1.0,4.0,87,0.00,,,0.00,,2013-08-24 13:11:00,
2013-08-24 08:22:00,62.0,58.0,30.29,South,178,1.0,4.0,86,0.00,,,0.00,,2013-08-24 13:22:00,
2013-08-24 08:42:00,63.0,58.0,30.29,South,173,2.0,2.0,85,0.00,,,0.00,,2013-08-24 13:42:00,
2013-08-24 08:52:00,65.0,59.0,30.29,SE,125,4.0,4.0,82,0.00,,,0.00,,2013-08-24 13:52:00,
2013-08-24 09:11:00,66.0,59.0,30.29,SSE,166,4.0,6.0,79,0.00,,,0.00,,2013-08-24 14:11:00,
2013-08-24 09:22:00,68.0,60.0,30.29,SSE,166,1.0,6.0,76,0.00,,,0.00,,2013-08-24 14:22:00,
2013-08-24 09:42:00,69.0,59.0,30.29,SSE,164,2.0,7.0,71,0.00,,,0.00,,2013-08-24 14:42:00,
2013-08-24 09:52:00,70.0,60.0,30.29,South,175,5.0,7.0,70,0.00,,,0.00,,2013-08-24 14:52:00,
2013-08-24 10:12:00,71.0,61.0,30.29,SSE,165,6.0,9.0,70,0.00,,,0.00,,2013-08-24 15:12:00,
2013-08-24 10:22:00,72.0,60.0,30.29,SSE,161,5.0,9.0,67,0.00,,,0.00,,2013-08-24 15:22:00,
2013-08-24 10:45:00,72.0,61.0,30.29,SE,140,6.0,9.0,68,0.00,,,0.00,,2013-08-24 15:45:00,
2013-08-24 10:54:00,74.0,62.0,30.29,SSE,154,3.0,8.0,66,0.00,,,0.00,,2013-08-24 15:54:00,
2013-08-24 11:13:00,75.0,62.0,30.28,South,182,1.0,7.0,64,0.00,,,0.00,,2013-08-24 16:13:00,
2013-08-24 11:23:00,75.0,62.0,30.28,SSE,159,7.0,8.0,64,0.00,,,0.00,,2013-08-24 16:23:00,
2013-08-24 11:53:00,77.0,62.0,30.28,SE,144,6.0,7.0,60,0.00,,,0.00,,2013-08-24 16:53:00,
2013-08-24 12:12:00,78.0,63.0,30.28,SSE,155,4.0,8.0,61,0.00,,,0.00,,2013-08-24 17:12:00,
2013-08-24 12:23:00,78.0,63.0,30.27,SSE,162,3.0,8.0,60,0.00,,,0.00,,2013-08-24 17:23:00,
2013-08-24 12:42:00,79.0,64.0,30.27,SSE,155,8.0,9.0,61,0.00,,,0.00,,2013-08-24 17:42:00,
2013-08-24 12:52:00,79.0,65.0,30.26,South,174,5.0,10.0,62,0.00,,,0.00,,2013-08-24 17:52:00,
2013-08-24 13:13:00,79.0,65.0,30.27,SSW,207,3.0,11.0,63,0.00,,,0.00,,2013-08-24 18:13:00,
2013-08-24 13:22:00,80.0,65.0,30.26,SE,130,2.0,8.0,61,0.00,,,0.00,,2013-08-24 18:22:00,
2013-08-24 13:42:00,80.0,66.0,30.26,SE,144,5.0,8.0,62,0.00,,,0.00,,2013-08-24 18:42:00,
2013-08-24 13:53:00,80.0,66.0,30.26,South,180,2.0,9.0,62,0.00,,,0.00,,2013-08-24 18:53:00,
2013-08-24 14:12:00,81.0,66.0,30.26,South,169,4.0,9.0,60,0.00,,,0.00,,2013-08-24 19:12:00,
2013-08-24 14:21:00,81.0,66.0,30.25,South,175,3.0,9.0,61,0.00,,,0.00,,2013-08-24 19:21:00,
2013-08-24 14:52:00,81.0,66.0,30.24,SE,144,4.0,10.0,61,0.00,,,0.00,,2013-08-24 19:52:00,
2013-08-24 15:11:00,81.0,67.0,30.23,SSW,195,5.0,9.0,63,0.00,,,0.00,,2013-08-24 20:11:00,
2013-08-24 15:22:00,82.0,67.0,30.22,SE,130,3.0,8.0,61,0.00,,,0.00,,2013-08-24 20:22:00,
2013-08-24 15:42:00,81.0,66.0,30.21,SW,216,1.0,11.0,61,0.00,,,0.00,,2013-08-24 20:42:00,
2013-08-24 15:52:00,81.0,67.0,30.21,SE,146,1.0,11.0,63,0.00,,,0.00,,2013-08-24 20:52:00,
2013-08-24 16:22:00,81.0,68.0,30.21,South,174,4.0,8.0,65,0.00,,,0.00,,2013-08-24 21:22:00,
2013-08-24 16:43:00,81.0,68.0,30.20,South,189,4.0,11.0,64,0.00,,,0.00,,2013-08-24 21:43:00,
2013-08-24 16:54:00,81.0,68.0,30.19,SE,141,6.0,11.0,64,0.00,,,0.00,,2013-08-24 21:54:00,
2013-08-24 17:14:00,81.0,68.0,30.20,South,191,5.0,10.0,64,0.00,,,0.00,,2013-08-24 22:14:00,
2013-08-24 17:23:00,81.0,68.0,30.20,South,187,3.0,9.0,65,0.00,,,0.00,,2013-08-24 22:23:00,
2013-08-24 17:43:00,81.0,68.0,30.20,South,171,5.0,6.0,65,0.00,,,0.00,,2013-08-24 22:43:00,
2013-08-24 17:53:00,81.0,68.0,30.19,SSE,150,5.0,11.0,65,0.00,,,0.00,,2013-08-24 22:53:00,
2013-08-24 18:12:00,80.0,68.0,30.19,SSE,165,7.0,10.0,66,0.00,,,0.00,,2013-08-24 23:12:00,
2013-08-24 18:22:00,80.0,68.0,30.19,SSE,161,3.0,11.0,67,0.00,,,0.00,,2013-08-24 23:22:00,
2013-08-24 18:43:00,80.0,68.0,30.19,SSE,149,3.0,9.0,67,0.00,,,0.00,,2013-08-24 23:43:00,
2013-08-24 18:53:00,79.0,68.0,30.19,SSE,165,4.0,8.0,68,0.00,,,0.00,,2013-08-24 23:53:00,
2013-08-24 19:12:00,79.0,68.0,30.19,South,178,4.0,5.0,69,0.00,,,0.00,,2013-08-25 00:12:00,
2013-08-24 19:22:00,78.0,67.0,30.19,SSE,166,1.0,7.0,70,0.00,,,0.00,,2013-08-25 00:22:00,
2013-08-24 19:42:00,78.0,68.0,30.19,SSE,165,2.0,5.0,71,0.00,,,0.00,,2013-08-25 00:42:00,
2013-08-24 19:52:00,77.0,67.0,30.19,SSE,160,0.0,5.0,72,0.00,,,0.00,,2013-08-25 00:52:00,
2013-08-24 20:11:00,76.0,67.0,30.19,SSE,160,2.0,3.0,74,0.00,,,0.00,,2013-08-25 01:11:00,
2013-08-24 20:22:00,75.0,67.0,30.19,SSE,160,1.0,4.0,75,0.00,,,0.00,,2013-08-25 01:22:00,
2013-08-24 20:42:00,75.0,67.0,30.19,SSE,161,3.0,4.0,75,0.00,,,0.00,,2013-08-25 01:42:00,
2013-08-24 20:52:00,74.0,66.0,30.19,SSE,164,1.0,5.0,77,0.00,,,0.00,,2013-08-25 01:52:00,
2013-08-24 21:11:00,74.0,67.0,30.20,SSE,155,2.0,6.0,79,0.00,,,0.00,,2013-08-25 02:11:00,
2013-08-24 21:22:00,73.0,66.0,30.20,South,178,5.0,5.0,79,0.00,,,0.00,,2013-08-25 02:22:00,
2013-08-24 21:42:00,73.0,66.0,30.21,SSE,156,2.0,5.0,79,0.00,,,0.00,,2013-08-25 02:42:00,
2013-08-24 21:52:00,72.0,65.0,30.21,SSE,149,4.0,6.0,80,0.00,,,0.00,,2013-08-25 02:52:00,
2013-08-24 22:11:00,72.0,65.0,30.21,SSE,147,2.0,7.0,79,0.00,,,0.00,,2013-08-25 03:11:00,
2013-08-24 22:23:00,72.0,65.0,30.20,SSE,159,2.0,5.0,80,0.00,,,0.00,,2013-08-25 03:23:00,
2013-08-24 22:44:00,72.0,65.0,30.20,SSE,164,1.0,7.0,80,0.00,,,0.00,,2013-08-25 03:44:00,
2013-08-24 22:54:00,72.0,66.0,30.20,SSE,155,3.0,6.0,81,0.00,,,0.00,,2013-08-25 03:54:00,
2013-08-24 23:02:00,-999.0,-99.9,30.20,SE,139,3.0,6.0,-999,-99.99,,,-99.99,,2013-08-25 04:02:00,
2013-08-24 23:14:00,71.0,65.0,30.20,SE,139,3.0,6.0,82,0.00,,,0.00,,2013-08-25 04:14:00,
2013-08-24 23:25:00,71.0,65.0,30.19,SSE,157,4.0,7.0,82,0.00,,,0.00,,2013-08-25 04:25:00,
2013-08-24 23:43:00,71.0,66.0,30.19,SSE,153,5.0,8.0,83,0.00,,,0.00,,2013-08-25 04:43:00,
2013-08-24 23:54:00,70.0,65.0,30.19,SSE,151,5.0,6.0,83,0.00,,,0.00,,2013-08-25 04:54:00,